• en Suisse
  • Liste des pays
  • À 7 jours
  • Température de l'eau
  • Carte satellitaire
  • Carte météo
  • Widgets météo
  • user-avatar
    Se connecter

    Météo par heure à Razdole

    Ce jour, 20 Juillet, Vendredi

    Heure Température Précipitation Vent Pression Humidité
    00:00 +17°C° 0 mm 3 m/s 736 mmHg 95%
    01:00 +17°C° 0 mm 3 m/s 736 mmHg 96%
    02:00 +16°C° 0 mm 3 m/s 736 mmHg 96%
    03:00 +16°C° 0 mm 3 m/s 736 mmHg 96%
    04:00 +16°C° 0 mm 3 m/s 736 mmHg 96%
    05:00 +17°C° 0 mm 3 m/s 737 mmHg 94%
    06:00 +18°C° 0 mm 4 m/s 737 mmHg 92%
    07:00 +18°C° 0 mm 4 m/s 737 mmHg 90%
    08:00 +20°C° 0,1 mm 4 m/s 737 mmHg 84%
    09:00 +22°C° 0,1 mm 4 m/s 737 mmHg 78%
    10:00 +23°C° 0,1 mm 4 m/s 737 mmHg 73%
    11:00 +25°C° 0,4 mm 4 m/s 737 mmHg 70%
    12:00 +26°C° 0,4 mm 4 m/s 737 mmHg 68%
    13:00 +26°C° 0,4 mm 5 m/s 737 mmHg 66%
    14:00 +26°C° 0,6 mm 5 m/s 737 mmHg 70%
    15:00 +25°C° 0,6 mm 5 m/s 738 mmHg 74%
    16:00 +23°C° 0,6 mm 5 m/s 738 mmHg 79%
    17:00 +23°C° 0,1 mm 4 m/s 738 mmHg 80%
    18:00 +22°C° 0,1 mm 4 m/s 738 mmHg 81%
    19:00 +21°C° 0,1 mm 4 m/s 738 mmHg 82%
    20:00 +20°C° 0 mm 5 m/s 738 mmHg 83%
    21:00 +20°C° 0 mm 5 m/s 738 mmHg 83%
    22:00 +19°C° 0 mm 5 m/s 738 mmHg 84%
    23:00 +19°C° 0,1 mm 5 m/s 738 mmHg 85%

    Demain, 21 Juillet, Samedi

    Heure Température Précipitation Vent Pression Humidité
    00:00 +17°C° 0,1 mm 5 m/s 738 mmHg 86%
    01:00 +17°C° 0,1 mm 5 m/s 738 mmHg 87%
    02:00 +16°C° 0,1 mm 5 m/s 739 mmHg 88%
    03:00 +16°C° 0,1 mm 5 m/s 739 mmHg 89%
    04:00 +16°C° 0,1 mm 5 m/s 739 mmHg 90%
    05:00 +16°C° 0,1 mm 5 m/s 739 mmHg 89%
    06:00 +16°C° 0,1 mm 5 m/s 739 mmHg 87%
    07:00 +16°C° 0,1 mm 5 m/s 740 mmHg 86%
    08:00 +19°C° 0 mm 5 m/s 740 mmHg 78%
    09:00 +20°C° 0 mm 5 m/s 740 mmHg 70%
    10:00 +21°C° 0 mm 6 m/s 740 mmHg 63%
    11:00 +22°C° 0 mm 6 m/s 740 mmHg 60%
    12:00 +23°C° 0 mm 6 m/s 740 mmHg 57%
    13:00 +24°C° 0 mm 6 m/s 740 mmHg 54%
    14:00 +25°C° 0 mm 5 m/s 740 mmHg 54%
    15:00 +25°C° 0 mm 5 m/s 740 mmHg 54%
    16:00 +25°C° 0 mm 5 m/s 740 mmHg 54%
    17:00 +23°C° 0 mm 4 m/s 740 mmHg 58%
    18:00 +22°C° 0 mm 4 m/s 740 mmHg 62%
    19:00 +21°C° 0 mm 4 m/s 741 mmHg 66%
    20:00 +19°C° 0 mm 4 m/s 741 mmHg 66%
    21:00 +18°C° 0 mm 4 m/s 741 mmHg 67%
    22:00 +15°C° 0 mm 4 m/s 741 mmHg 68%
    23:00 +15°C° 0 mm 4 m/s 741 mmHg 69%

    Après-demain, 22 Juillet, Dimanche

    Heure Température Précipitation Vent Pression Humidité
    00:00 +14°C° 0 mm 4 m/s 742 mmHg 70%
    01:00 +13°C° 0 mm 4 m/s 742 mmHg 71%
    02:00 +12°C° 0 mm 4 m/s 742 mmHg 72%
    03:00 +12°C° 0 mm 4 m/s 742 mmHg 72%
    04:00 +11°C° 0 mm 4 m/s 742 mmHg 72%
    05:00 +12°C° 0 mm 4 m/s 742 mmHg 71%
    06:00 +13°C° 0 mm 4 m/s 742 mmHg 69%
    07:00 +14°C° 0 mm 4 m/s 742 mmHg 68%
    08:00 +16°C° 0 mm 5 m/s 743 mmHg 62%
    09:00 +17°C° 0 mm 5 m/s 743 mmHg 56%
    10:00 +20°C° 0 mm 6 m/s 743 mmHg 50%
    11:00 +21°C° 0 mm 5 m/s 743 mmHg 48%
    12:00 +21°C° 0 mm 5 m/s 743 mmHg 46%
    13:00 +22°C° 0 mm 5 m/s 743 mmHg 45%
    14:00 +22°C° 0 mm 5 m/s 742 mmHg 45%
    15:00 +22°C° 0 mm 5 m/s 742 mmHg 46%
    16:00 +22°C° 0 mm 4 m/s 742 mmHg 47%
    17:00 +21°C° 0 mm 4 m/s 742 mmHg 52%
    18:00 +20°C° 0 mm 3 m/s 742 mmHg 58%
    19:00 +19°C° 0 mm 3 m/s 742 mmHg 63%
    20:00 +17°C° 0 mm 3 m/s 743 mmHg 66%
    21:00 +16°C° 0 mm 3 m/s 743 mmHg 68%
    22:00 +13°C° 0 mm 3 m/s 743 mmHg 71%
    23:00 +12°C° 0 mm 3 m/s 743 mmHg 73%

    23 Juillet, Lundi

    Heure Température Précipitation Vent Pression Humidité
    00:00 +11°C° 0 mm 3 m/s 744 mmHg 76%
    01:00 +11°C° 0 mm 3 m/s 744 mmHg 78%
    02:00 +10°C° 0 mm 2 m/s 744 mmHg 81%
    03:00 +9°C° 0 mm 2 m/s 744 mmHg 83%
    04:00 +9°C° 0 mm 2 m/s 744 mmHg 85%
    05:00 +10°C° 0 mm 2 m/s 744 mmHg 80%
    06:00 +12°C° 0 mm 3 m/s 744 mmHg 75%
    07:00 +13°C° 0 mm 3 m/s 745 mmHg 70%
    08:00 +16°C° 0 mm 3 m/s 745 mmHg 63%
    09:00 +18°C° 0 mm 4 m/s 745 mmHg 57%
    10:00 +20°C° 0 mm 4 m/s 745 mmHg 50%
    11:00 +21°C° 0 mm 4 m/s 744 mmHg 48%
    12:00 +21°C° 0 mm 4 m/s 744 mmHg 46%
    13:00 +22°C° 0 mm 3 m/s 744 mmHg 45%
    14:00 +24°C° 0 mm 3 m/s 744 mmHg 45%
    15:00 +24°C° 0 mm 3 m/s 744 mmHg 46%
    16:00 +24°C° 0 mm 3 m/s 744 mmHg 46%
    17:00 +23°C° 0 mm 2 m/s 744 mmHg 53%
    18:00 +21°C° 0 mm 2 m/s 743 mmHg 59%
    19:00 +20°C° 0 mm 2 m/s 743 mmHg 66%
    20:00 +20°C° 0 mm 1 m/s 744 mmHg 68%
    21:00 +18°C° 0 mm 1 m/s 744 mmHg 70%
    22:00 +15°C° 0 mm 1 m/s 744 mmHg 73%
    23:00 +15°C° 0 mm 1 m/s 744 mmHg 74%

    24 Juillet, Mardi

    Heure Température Précipitation Vent Pression Humidité
    00:00 +14°C° 0 mm 1 m/s 744 mmHg 75%
    01:00 +14°C° 0 mm 1 m/s 744 mmHg 77%
    02:00 +13°C° 0 mm 1 m/s 744 mmHg 78%
    03:00 +13°C° 0 mm 1 m/s 744 mmHg 80%
    04:00 +13°C° 0 mm 1 m/s 744 mmHg 82%
    05:00 +14°C° 0 mm 0 m/s 745 mmHg 77%
    06:00 +15°C° 0 mm 0 m/s 745 mmHg 73%
    07:00 +17°C° 0 mm 0 m/s 745 mmHg 69%
    08:00 +19°C° 0 mm 0 m/s 745 mmHg 64%
    09:00 +21°C° 0 mm 0 m/s 745 mmHg 59%
    10:00 +25°C° 0 mm 1 m/s 745 mmHg 54%
    11:00 +26°C° 0 mm 1 m/s 745 mmHg 51%
    12:00 +27°C° 0 mm 1 m/s 745 mmHg 49%
    13:00 +28°C° 0 mm 1 m/s 745 mmHg 46%
    14:00 +28°C° 0 mm 2 m/s 744 mmHg 47%
    15:00 +28°C° 0 mm 2 m/s 744 mmHg 48%
    16:00 +28°C° 0 mm 2 m/s 744 mmHg 49%
    17:00 +27°C° 0 mm 2 m/s 744 mmHg 56%
    18:00 +26°C° 0 mm 2 m/s 744 mmHg 63%
    19:00 +25°C° 0 mm 2 m/s 744 mmHg 70%
    20:00 +23°C° 0 mm 2 m/s 744 mmHg 74%
    21:00 +21°C° 0 mm 1 m/s 744 mmHg 78%
    22:00 +20°C° 0 mm 1 m/s 744 mmHg 82%
    23:00 +19°C° 0 mm 1 m/s 744 mmHg 83%

    25 Juillet, Mercredi

    Heure Température Précipitation Vent Pression Humidité
    00:00 +18°C° 0 mm 1 m/s 744 mmHg 83%
    01:00 +18°C° 0 mm 1 m/s 744 mmHg 84%
    02:00 +16°C° 0 mm 1 m/s 744 mmHg 86%
    03:00 +16°C° 0 mm 1 m/s 744 mmHg 87%
    04:00 +16°C° 0 mm 1 m/s 744 mmHg 89%
    05:00 +18°C° 0 mm 1 m/s 744 mmHg 84%
    06:00 +20°C° 0 mm 1 m/s 744 mmHg 79%
    07:00 +21°C° 0 mm 1 m/s 745 mmHg 74%
    08:00 +23°C° 0 mm 1 m/s 745 mmHg 67%
    09:00 +25°C° 0 mm 1 m/s 745 mmHg 61%
    10:00 +27°C° 0 mm 2 m/s 745 mmHg 54%
    11:00 +28°C° 0 mm 2 m/s 745 mmHg 50%
    12:00 +29°C° 0 mm 2 m/s 744 mmHg 45%
    13:00 +30°C° 0 mm 2 m/s 744 mmHg 41%
    14:00 +30°C° 0 mm 2 m/s 744 mmHg 43%
    15:00 +30°C° 0 mm 2 m/s 744 mmHg 44%
    16:00 +30°C° 0 mm 2 m/s 744 mmHg 45%
    17:00 +29°C° 0 mm 2 m/s 744 mmHg 53%
    18:00 +27°C° 0 mm 2 m/s 744 mmHg 60%
    19:00 +26°C° 0 mm 2 m/s 744 mmHg 67%
    20:00 +24°C° 0 mm 2 m/s 744 mmHg 69%
    21:00 +23°C° 0 mm 1 m/s 744 mmHg 72%
    22:00 +21°C° 0 mm 1 m/s 744 mmHg 74%
    23:00 +20°C° 0 mm 1 m/s 744 mmHg 76%
    Voir plus